Terminal Aerodrome Forecast
Issued by NWS

Home | Current Version | Previous Version | Text Only | Print | Product List | Glossary On
Versions: 1 2 3 4 5 6 7 8 9 10 11 12 13 14 15 16 17 18 19 20 21
000
FTUS43 KBIS 272300
TAFDIK
TAF
KDIK 272336Z 2800/2824 17015KT P6SM OVC080
     FM280200 18006KT P6SM SCT020 BKN070=

USA.gov is the U.S. government's official web portal to all federal, state and local government web resources and services.